Ahmedabad, India

11:16 AM IST on February 21, 2018 (GMT +0530)
Ahmedabad

Weather History for VAAH - February, 2013

Change the Weather History Date:

Tuesday, February 19, 2013

  Actual Average Record
Temperature  
Mean Temperature 72 °F -  
Max Temperature 85 °F 90 °F 98 °F (2017)
Min Temperature 59 °F 64 °F 48 °F (2005)
Cooling Degree Days 7    
Growing Degree Days 22 (Base 50)    
Moisture  
Dew Point 50 °F    
Average Humidity 47    
Maximum Humidity 72    
Minimum Humidity 19    
Precipitation  
Precipitation 0.00 in 0.00 in - ()
Sea Level Pressure  
Sea Level Pressure 29.90 in    
Wind  
Wind Speed 4 mph ()    
Max Wind Speed 9 mph    
Max Gust Speed -    
Visibility 2.7 miles    
Events      
Averages and records for this station are not official NWS values.
T = Trace of Precipitation, MM = Missing Value Source: Averaged Metar Reports

Daily Weather History Graph

Daily Weather History Graph

Search for Another Location

Airport or City:

Trip Planner

Search our weather history database for the weather conditions in past years. The results will help you decide how hot, cold, wet, or windy it might be!

Date:

Astronomy

Feb. 19, 2013 Rise Set
Actual Time 7:09 AM IST 6:37 PM IST
Civil Twilight 6:46 AM IST 7:00 PM IST
Nautical Twilight 6:19 AM IST 7:27 PM IST
Astronomical Twilight 5:53 AM IST 7:53 PM IST
Moon 1:08 PM IST (2/19) 1:58 AM IST (2/19)
Length of Visible Light 12h 14m
Length of Day
11h 28m
Waxing Gibbous, 63% of the Moon is Illuminated
Feb 19
Waxing Gibbous
Feb 26
Full
Mar 5
Last Quarter
Mar 12
New
Mar 19
First Quarter

Hourly Weather History & Observations

Time (IST) Temp. Dew Point Humidity Pressure Visibility Wind Dir Wind Speed Gust Speed Precip Events Conditions
12:10 AM 64.4 °F 53.6 °F 68% 29.92 in 2.5 mi NNE 3.5 mph - N/A   Haze
12:40 AM 60.8 °F 51.8 °F 72% 29.92 in 2.5 mi NNE 3.5 mph - N/A   Haze
1:10 AM 60.8 °F 51.8 °F 72% 29.92 in 2.5 mi NNE 3.5 mph - N/A   Haze
1:40 AM 60.8 °F 51.8 °F 72% 29.89 in 2.5 mi NE 3.5 mph - N/A   Haze
2:10 AM 60.8 °F 50.0 °F 68% 29.86 in 2.5 mi NE 3.5 mph - N/A   Haze
2:30 AM 64 °F 52 °F 55% 29.88 in 2 mi East 4.6 mph - -   Partly Cloudy
3:10 AM 64.4 °F 48.2 °F 56% 29.86 in 2.5 mi ENE 3.5 mph - N/A   Haze
3:40 AM 62.6 °F 50.0 °F 63% 29.86 in 2.5 mi North 4.6 mph - N/A   Haze
4:40 AM 59.0 °F 48.2 °F 67% 29.89 in 2.5 mi NE 3.5 mph - N/A   Haze
5:10 AM 60.8 °F 48.2 °F 63% 29.89 in 2.5 mi NE 4.6 mph - N/A   Haze
5:30 AM 63 °F 51 °F 56% 29.90 in 2 mi East 4.6 mph - -   Scattered Clouds
5:40 AM 60.8 °F 48.2 °F 63% 29.89 in 2.5 mi NE 4.6 mph - N/A   Haze
6:10 AM 60.8 °F 48.2 °F 63% 29.89 in 2.5 mi ENE 6.9 mph - N/A   Haze
6:40 AM 60.8 °F 48.2 °F 63% 29.92 in 2.2 mi NE 6.9 mph - N/A   Haze
7:40 AM 60.8 °F 48.2 °F 63% 29.95 in 1.9 mi NE 5.8 mph - N/A   Haze
8:10 AM 62.6 °F 48.2 °F 59% 29.95 in 1.9 mi ENE 5.8 mph - N/A   Haze
8:30 AM 64 °F 51 °F 53% 29.96 in 1 mi NNE 3.5 mph - -   Haze
8:40 AM 66.2 °F 48.2 °F 52% 29.95 in 1.9 mi ENE 6.9 mph - N/A   Smoke
9:10 AM 68.0 °F 48.2 °F 49% 29.95 in 2.5 mi East 5.8 mph - N/A   Smoke
10:10 AM 73.4 °F 48.2 °F 41% 29.98 in 3.1 mi ENE 8.1 mph - N/A   Smoke
10:40 AM 75.2 °F 48.2 °F 38% 29.98 in 3.7 mi ENE 6.9 mph - N/A   Unknown
11:10 AM 77.0 °F 50.0 °F 39% 29.95 in 3.7 mi ENE 6.9 mph - N/A   Unknown
11:30 AM 77 °F 49 °F 27% 29.98 in 2 mi East 3.5 mph - -   Scattered Clouds
11:40 AM 80.6 °F 50.0 °F 34% 29.95 in 3.7 mi East 5.8 mph - N/A   Unknown
12:10 PM 80.6 °F 51.8 °F 37% 29.92 in 3.7 mi East 5.8 mph - N/A   Unknown
12:40 PM 82.4 °F 51.8 °F 35% 29.92 in 3.7 mi ENE 5.8 mph - N/A   Unknown
1:10 PM 84.2 °F 51.8 °F 33% 29.89 in 3.7 mi ENE 4.6 mph - N/A   Unknown
1:40 PM 86.0 °F 51.8 °F 31% 29.89 in 3.7 mi ENE 8.1 mph - N/A   Unknown
2:10 PM 86.0 °F 51.8 °F 31% 29.86 in 3.7 mi East 5.8 mph - N/A   Unknown
2:30 PM 84 °F 50 °F 20% 29.90 in 2 mi East 4.6 mph - -  
3:10 PM 86.0 °F 50.0 °F 29% 29.83 in 3.7 mi ENE 5.8 mph - N/A   Unknown
3:40 PM 86.0 °F 50.0 °F 29% 29.83 in 3.7 mi NE 9.2 mph - N/A   Unknown
4:10 PM 86.0 °F 50.0 °F 29% 29.83 in 3.7 mi ENE 6.9 mph - N/A   Unknown
4:40 PM 86.0 °F 48.2 °F 27% 29.83 in 3.7 mi NNE 6.9 mph - N/A   Unknown
5:10 PM 86.0 °F 48.2 °F 27% 29.83 in 3.7 mi NE 5.8 mph - N/A   Unknown
5:30 PM 84 °F 49 °F 19% 29.86 in 2 mi NNW 3.5 mph - -  
5:40 PM 84.2 °F 46.4 °F 27% 29.83 in 3.7 mi NNE 5.8 mph - N/A   Unknown
6:40 PM 80.6 °F 48.2 °F 32% 29.86 in 2.5 mi NNE 4.6 mph - N/A   Smoke
7:10 PM 77.0 °F 50.0 °F 39% 29.86 in 2.5 mi NNE 4.6 mph - N/A   Smoke
7:40 PM 77.0 °F 48.2 °F 36% 29.86 in 2.5 mi NNE 3.5 mph - N/A   Smoke
8:10 PM 77.0 °F 48.2 °F 36% 29.86 in 2.5 mi NNE 3.5 mph - N/A   Smoke
8:30 PM 69 °F 54 °F 49% 29.91 in 2 mi Calm Calm - -   Haze
8:40 PM 71.6 °F 51.8 °F 50% 29.89 in 2.5 mi Variable 2.3 mph - N/A   Smoke
9:10 PM 71.6 °F 50.0 °F 46% 29.92 in 2.5 mi Variable 3.5 mph - N/A   Smoke
9:40 PM 73.4 °F 50.0 °F 44% 29.92 in 2.5 mi NNE 3.5 mph - N/A   Smoke
10:10 PM 71.6 °F 50.0 °F 46% 29.92 in 2.5 mi NE 3.5 mph - N/A   Smoke
10:40 PM 68.0 °F 53.6 °F 60% 29.92 in 2.5 mi NNE 3.5 mph - N/A   Smoke
11:10 PM 66.2 °F 50.0 °F 56% 29.92 in 2.5 mi ENE 2.3 mph - N/A   Smoke
11:30 PM 67 °F 54 °F 54% 29.94 in 2 mi Calm Calm - -   Haze
11:40 PM 66.2 °F 50.0 °F 56% 29.92 in 2.5 mi East 3.5 mph - N/A   Smoke